STARLINK-37582, 69363

Orbit data source: Space-Track

STARLINK-37582, 69363 is a payload satellite owned by SpaceX/Seattle (US) in LEO that was launched on Thu, 04 Jun 2026 UTC via an FALCON 9 launch vehicle from the Air Force Eastern Test Range (AFETR). Payload-class satellites include a variety of spacecraft equipped with specific instruments for various scientific and technological missions. These include communications satellites like Starlink; space stations such as the ISS; scientific satellites like the Hubble; Earth observation satellites from companies like Planet Labs, Umbra, and HawkEye 360; GPS; miniature CubeSats for education and research; and military/defense satellites.

Loading next visibility...
Identifier
69363, 2026-123L
Orbit
LEO
Country
Flag of USUS
Related business
Manufacturer
SpaceX/Seattle
Mission
Operational spacecraft
Bus & Motor
STARLINK V2MO, Unknown motor
Mass
575 kg wet, ~530 kg dry
Launch date (UTC)
2026-06-04 (2 months ago)
Launch vehicle
FALCON 9
Launch site
Air Force Eastern Test Range (AFETR)
Object type
Payload
Rocket body
Debris
Shape & HBR
Unknown shape, 17.7 m
Radar Cross Section
Large (>1 m²)

Expand to show TLE details & history
Last TLE update: 18 hours ago

TLE from 18 hours ago
0 STARLINK-37582
1 69363U 26123L   26201.91434002  .00167934  00000-0  10765-2 0  9996
2 69363  53.1577  74.0488 0001109  87.9279 272.1868 15.75271617  7352
Epoch: 2026-07-20T21:56Z
TLE epoch observation values (Epoch: 2026-07-20T21:56:38.977Z)
Latitude
-0.00006°
Longitude
166.1948°
Altitude
344.747 km
Speed
7.703 km/s
True Right ascension
04h 56m 11s
True Declination
0° 00' 00"
Sunlit
Object was in daylight at epoch
Visualization orbit readout
Latitude
Unknown
Longitude
Unknown
Altitude
Unknown
Speed
Unknown
Apparent Right ascension
Unknown
Apparent Declination
Unknown
Sunlit
N/A
Visualization observer readout
Local Sidereal Time
05:05:03
Azimuth
Unknown
Elevation
Unknown
Doppler factor
Unknown
Orbital elements
Apogee altitude
344.866 km
Perigee altitude
343.375 km
Semi-major axis
6,722.257 km
Eccentricity
0.00011
Inclination
53.1577°
RAAN
74.0488°
Arg. of periapsis
87.9279°
True anomaly
272.1741°
Mean anomaly
272.1868°
Eccentric anomaly
272.18045°
Mean motion
3.93795 °/min
Orbital period
91.42 mins
BSTAR
0.0010765
Loading maneuver chart data...
Computing Atmospheric mass density...
Loading historical data...
Loading historical data...
Loading historical data...
Loading historical data...
Loading historical data...
Loading historical data...
Loading historical data...

Documentation

Showing up to 5 results
|